User: anonymous   Login
Location: Unspecified
(0.0000°N, 0.0000°E)
Time: 22:14:15
(UTC+00:00)
Language:

STARLINK-4255 - Orbit

View from above orbital plane
View from above orbital plane
View from above satellite
View from above satellite

Ground track
Ground track

The orbit is defined by the following mean orbital elements,

1 53003U          26145.63459689 +.00000000 +00000-0 +40379-3 0 00008
2 53003  53.2131 108.6986 0001254  91.9155 268.1981 15.08813686    09
Epoch (UTC): 25 May 2026 15:13:49
Eccentricity: 0.0001254
inclination: 53.2131°
perigee height: 539 km
apogee height: 541 km
right ascension of ascending node: 108.6986°
argument of perigee: 91.9155°
revolutions per day: 15.08813686
mean anomaly at epoch: 268.1981°

The dashed part of the orbit path shows where the satellite is in the earth's shadow,  

DLR